Regional Weather Roundup
Issued by NWS

Home | Current Version | Previous Version | Graphics & Text | Print | Product List | Glossary On
Versions: 1 2 3 4 5 6 7 8 9 10 11 12 13 14 15 16 17 18 19 20 21 22 23 24 25 26 27 28 29 30 31 32 33 34 35 36 37 38 39 40 41 42 43 44 45 46 47 48 49 50
000
ASUS45 KABQ 261601
RWRNM
NEW MEXICO REGIONAL WEATHER ROUNDUP
NATIONAL WEATHER SERVICE ALBUQUERQUE NM
1000 AM MDT FRI MAY 26 2017

NOTE: "FAIR" MEANS FEW OR NO CLOUDS BELOW 12,000 FEET AGL WITH NO
       SIGNIFICANT WEATHER OR OBSTRUCTIONS TO VISION.

      THIS PRODUCT IS RELEASED AS TWO VERSIONS.  ONE VERSION NEAR
      THE TOP OF THE HOUR CONTAINING PRELIMINARY DATA FROM ALBUQUERQUE
      AND OTHER STATIONS.  A FINAL VERSION WITH ADDITIONAL DATA IS
      ISSUED ABOUT 10 MINUTES AFTER THE HOUR.

NMZ501-503-504-510>518-261700-
NORTHWEST PLATEAU/NORTHCENTRAL MOUNTAINS

CITY           SKY/WX    TMP DP  RH WIND       PRES   REMARKS
FARMINGTON     FAIR      68  23  18 VRB3      29.97S
LOS ALAMOS     FAIR      64  13  13 SW16G22   30.12S
SANTA FE       FAIR      69  17  13 W10G18    30.09S
TAOS           FAIR      64  19  17 SW15      30.10F
ANGEL FIRE     FAIR      56  21  25 W21       30.15S

$$
NMZ402-403-502-505>509-261700-
WESTCENTRAL MOUNTAINS/SOUTHWEST MOUNTAINS

CITY           SKY/WX    TMP DP  RH WIND       PRES   REMARKS
GALLUP         FAIR      65  19  17 SW22G35   30.07F
GRANTS         FAIR      67  15  13 SW9G24    30.11R
SILVER CITY    FAIR      73  20  13 SW16      30.10S

$$
NMZ407-409-411-412-261700-
SOUTHERN DESERTS

CITY           SKY/WX    TMP DP  RH WIND       PRES   REMARKS
DEMING         FAIR      79  21  11 W12G20    30.04F
LAS CRUCES     FAIR      77  28  16 SW10      30.07S
HOLLOMAN AFB   FAIR      81  26  13 W13       30.06S
T OR C         FAIR      77  20  12 S14       30.04S

$$
NMZ519>523-261700-
CENTRAL VALLEYS/CENTRAL HIGHLANDS

CITY           SKY/WX    TMP DP  RH WIND       PRES   REMARKS
ALBUQUERQUE    FAIR      70  13  11 SW5       30.05F
DOUBLE EAGLE   MOSUNNY   70  19  14 SW10      30.08F
MORIARTY ARPT  FAIR      73  17  12 W16       30.10S
CLINES CORNERS FAIR      67  15  13 W26       30.12S
BELEN          FAIR      74  15  10 S6        30.05S
SOCORRO        FAIR      75  25  15 E10       30.02F

$$
NMZ524>526-539-540-261700-
SOUTHCENTRAL MOUNTAINS

CITY           SKY/WX    TMP DP  RH WIND       PRES   REMARKS
RUIDOSO        NOT AVBL

$$
NMZ527>531-261700-
NORTHEAST HIGHLANDS/NORTHEAST PLAINS

CITY           SKY/WX    TMP DP  RH WIND       PRES   REMARKS
LAS VEGAS      FAIR      69  15  12 SW21      30.07S
RATON          FAIR      64  39  39 S5        30.03F
CLAYTON        FAIR      67  49  52 E8        30.00S

$$
NMZ532>537-261700-
EASTCENTRAL PLAINS

CITY           SKY/WX    TMP DP  RH WIND       PRES   REMARKS
SANTA ROSA     FAIR      78  20  11 W15G22    29.99S
TUCUMCARI      FAIR      71  51  49 SE7       29.96S
CANNON AFB     FAIR      73  43  33 N7        30.00R
CLOVIS AIRPORT FAIR      72  46  40 N12       29.99R

$$
NMZ028-029-538-261700-
SOUTHEAST PLAINS

CITY           SKY/WX    TMP DP  RH WIND       PRES   REMARKS
ROSWELL        FAIR      84  22  10 CALM      29.97R
ARTESIA        FAIR      77  28  16 VRB5      29.97S
CARLSBAD       FAIR      82  32  16 W13       29.97R
HOBBS          SUNNY     84  19   9 W7        29.99S


$$




USA.gov is the U.S. government's official web portal to all federal, state and local government web resources and services.